Retour au catalogue

CZ-6A DEB

ActifSSO
NORAD 54296·DEBRIS·🇨🇳 China

Lancé Nov 11, 2022 depuis Taiyuan Satellite Launch Center

Loading…

Prochains Passages (prochaines 24 heures)

TLE

FraisSource: Space-Track

Époque: Sep 14, 2026, 13:21 UTC

1 54296U 22151AP  26257.55625569  .00001104  00000-0  41626-3 0  9990
2 54296  98.7702 302.7136 0030578 125.9786 234.4240 14.33160538199837

Suivez CZ-6A DEB en temps réel avec AllMySat

Download on the App Store